Weather in Wageningen

Netherlands     51°58′30″N   5°40′19″E
temp.,
°C
wind,
m/s
gust,
m/s
humid.,
%
clouds,
%
prec.,
mm/h
press.,
hPa
HPBL,
m
7 march, sun
sun701:00−1nne22880 0.0 103030
04:00−1ne11860 0.0 102821
07:00−1nnw11850 0.0 102721
10:00+4nnw23630 0.0 1026567
13:00+6nw33521 0.0 10251059
16:00+6n445825 0.0 10241189
19:00+1n237839 0.0 102346
22:000nnw22850 0.0 102425
8 march, mon
mon801:000nw229025 0.0 102432
04:000wnw22930 0.0 102346
07:000wnw229126 0.0 102338
10:00+4w2374100 0.0 1024266
13:00+6wsw2263100 0.0 1023705
16:00+6wsw346596 0.0 1022921
19:00+4sw237798 0.0 102173
22:00+3w2680100 0.0 1021326
9 march, tue
tue901:00+3sw4987100 0.5 1020419
04:00+3sw51093100 1.4 1019455
07:00+4wsw3798100 2.4 1019300
10:00+7w478793 0.2 1019627
13:00+9wnw577094 0.8 10201133
16:00+10w576575 0.2 10191254
19:00+5wsw368338 0.2 1019150
22:00+3sw36830 0.0 1019154
10 march, wed
wed1001:00+4sw3108946 0.0 1018354
04:00+4ssw41286100 0.0 1017439
07:00+4ssw51380100 0.0 1016594
10:00+6ssw71369100 0.0 1014866
13:00+6ssw81467100 0.1 1012985
16:00+5ssw81586100 1.6 1010919
19:00+5ssw91790100 4.4 1007867
22:00+7ssw101892100 3.6 1003997
11 march, thu
thu1101:00+9sw102085100 5.9 10001166
04:00+11sw112484100 0.1 9961771
07:00+9wsw132574100 0.6 9962023
10:00+9wsw122270100 0.2 9992111
13:00+10wsw13216296 0.9 10012119
16:00+10wsw11196170 0.8 10011970
19:00+7wsw8176970 0.9 10011410
22:00+7wsw91775100 0.4 10021455